2004 DA62

Japanese version
Home page
Updated on December 31, 2006

---------------------------------------------------------------------

* Profile

Designation 2004 DA62
Discovery Date February 25, 2004
Magnitude 20.1 mag
Discoverer Lincoln Laboratory Near-Earth Asteroid Research project

* Orbital Elements

Epoch 2004 July 14.0 TT = JDT 2453200.5                 MPC
M   8.95756              (2000.0)            P               Q
n   0.04604554     Peri.  162.47929     -0.90617601     +0.05464148
a   7.7092296      Node    32.03902     -0.41540227     -0.30091343
e   0.4672328      Incl.   52.23196     +0.07928424     -0.95208477
P  21.41           H   12.8           G   0.15           U   2

* Finding Charts

* Magnitudes Graph

        H = 13.0  G = 0.15

---------------------------------------------------------------------

The orbital elements are published on M.P.E.C. 2004-S19.
The charts are made with StellaNavigator Ver.2.0 for Windows (AstroArts / ASCII).
The magnitudes graphs are made with Comet for Windows.

---------------------------------------------------------------------

Copyright(C) Seiichi Yoshida (comet@aerith.net). All rights reserved.